Location: Newark
(52.3500°N, 175.9667°E)
Time: 22:34:17
(UTC+00:00)

Altair - Pass Details

Date: 30 April 2021
Orbit: 1501 x 1683 km, 47.2° (Epoch: 05 May)

Event Time Altitude Azimuth Distance (km) Brightness Sun altitude
Rises 20:48:12 0° 284° (WNW) 4,850 9.6 35.1°
Reaches altitude 10° 20:51:36 10° 277° (W) 3,836 9.2 35.5°
Maximum altitude 21:00:19 39° 214° (SSW) 2,191 8.6 36.8°
Drops below altitude 10° 21:08:44 10° 149° (SSE) 3,698 10.4 37.9°
Sets 21:11:58 0° 142° (SE) 4,660 10.8 38.3°
